Year,Month,Day,Hour,Minute,Value (Times are PST for temperature in C)
2009,05,15,00,00,8.40
2009,05,15,00,01,8.40
2009,05,15,00,02,8.40
2009,05,15,00,03,8.40
2009,05,15,00,04,8.30
2009,05,15,00,05,8.30
2009,05,15,00,06,8.30
2009,05,15,00,07,8.30
2009,05,15,00,08,8.30
2009,05,15,00,09,8.30
2009,05,15,00,10,8.30
2009,05,15,00,11,8.30
2009,05,15,00,12,8.30
2009,05,15,00,13,8.30
2009,05,15,00,14,8.30
2009,05,15,00,15,8.30
2009,05,15,00,16,8.30
2009,05,15,00,17,8.30
2009,05,15,00,18,8.30
2009,05,15,00,19,8.30
2009,05,15,00,20,8.30
2009,05,15,00,21,8.30
2009,05,15,00,22,8.30
2009,05,15,00,23,8.30
2009,05,15,00,24,8.30
2009,05,15,00,25,8.30
2009,05,15,00,26,8.30
2009,05,15,00,27,8.30
2009,05,15,00,28,8.30
2009,05,15,00,29,8.30
2009,05,15,00,30,8.30
2009,05,15,00,31,8.30
2009,05,15,00,32,8.30
2009,05,15,00,33,8.30
2009,05,15,00,34,8.30
2009,05,15,00,35,8.30
2009,05,15,00,36,8.30
2009,05,15,00,37,8.30
2009,05,15,00,38,8.30
2009,05,15,00,39,8.40
2009,05,15,00,40,8.40
2009,05,15,00,41,8.40
2009,05,15,00,42,8.40
2009,05,15,00,43,8.40
2009,05,15,00,44,8.40
2009,05,15,00,45,8.40
2009,05,15,00,46,8.40
2009,05,15,00,47,8.40
2009,05,15,00,48,8.30
2009,05,15,00,49,8.30
2009,05,15,00,50,8.30
2009,05,15,00,51,8.30
2009,05,15,00,52,8.30
2009,05,15,00,53,8.30
2009,05,15,00,54,8.30
2009,05,15,00,55,8.30
2009,05,15,00,56,8.30
2009,05,15,00,57,8.30
2009,05,15,00,58,8.30
2009,05,15,00,59,8.30
2009,05,15,01,00,8.30
2009,05,15,01,01,8.20
2009,05,15,01,02,8.20
2009,05,15,01,03,8.20
2009,05,15,01,04,8.20
2009,05,15,01,05,8.20
2009,05,15,01,06,8.20
2009,05,15,01,07,8.20
2009,05,15,01,08,8.20
2009,05,15,01,09,8.20
2009,05,15,01,10,8.20
2009,05,15,01,11,8.20
2009,05,15,01,12,8.20
2009,05,15,01,13,8.20
2009,05,15,01,14,8.20
2009,05,15,01,15,8.20
2009,05,15,01,16,8.20
2009,05,15,01,17,8.20
2009,05,15,01,18,8.10
2009,05,15,01,19,8.10
2009,05,15,01,20,8.10
2009,05,15,01,21,8.10
2009,05,15,01,22,8.00
2009,05,15,01,23,8.00
2009,05,15,01,24,8.00
2009,05,15,01,25,7.90
2009,05,15,01,26,7.90
2009,05,15,01,27,7.90
2009,05,15,01,28,7.90
2009,05,15,01,29,7.80
2009,05,15,01,30,7.80
2009,05,15,01,31,7.80
2009,05,15,01,32,7.80
2009,05,15,01,33,7.80
2009,05,15,01,34,7.70
2009,05,15,01,35,7.70
2009,05,15,01,36,7.70
2009,05,15,01,37,7.60
2009,05,15,01,38,7.60
2009,05,15,01,39,7.60
2009,05,15,01,40,7.50
2009,05,15,01,41,7.50
2009,05,15,01,42,7.50
2009,05,15,01,43,7.40
2009,05,15,01,44,7.40
2009,05,15,01,45,7.40
2009,05,15,01,46,7.40
2009,05,15,01,47,7.40
2009,05,15,01,48,7.40
2009,05,15,01,49,7.40
2009,05,15,01,50,7.40
2009,05,15,01,51,7.40
2009,05,15,01,52,7.50
2009,05,15,01,53,7.50
2009,05,15,01,54,7.50
2009,05,15,01,55,7.50
2009,05,15,01,56,7.50
2009,05,15,01,57,7.50
2009,05,15,01,58,7.50
2009,05,15,01,59,7.50
2009,05,15,02,00,7.40
2009,05,15,02,01,7.40
2009,05,15,02,02,7.40
2009,05,15,02,03,7.30
2009,05,15,02,04,7.30
2009,05,15,02,05,7.30
2009,05,15,02,06,7.20
2009,05,15,02,07,7.20
2009,05,15,02,08,7.20
2009,05,15,02,09,7.20
2009,05,15,02,10,7.20
2009,05,15,02,11,7.20
2009,05,15,02,12,7.20
2009,05,15,02,13,7.20
2009,05,15,02,14,7.20
2009,05,15,02,15,7.20
2009,05,15,02,16,7.20
2009,05,15,02,17,7.10
2009,05,15,02,18,7.20
2009,05,15,02,19,7.20
2009,05,15,02,20,7.20
2009,05,15,02,21,7.20
2009,05,15,02,22,7.20
2009,05,15,02,23,7.20
2009,05,15,02,24,7.20
2009,05,15,02,25,7.20
2009,05,15,02,26,7.20
2009,05,15,02,27,7.20
2009,05,15,02,28,7.20
2009,05,15,02,29,7.20
2009,05,15,02,30,7.20
2009,05,15,02,31,7.20
2009,05,15,02,32,7.10
2009,05,15,02,33,7.10
2009,05,15,02,34,7.10
2009,05,15,02,35,7.10
2009,05,15,02,36,7.00
2009,05,15,02,37,7.00
2009,05,15,02,38,6.90
2009,05,15,02,39,6.90
2009,05,15,02,40,6.90
2009,05,15,02,41,6.90
2009,05,15,02,42,6.90
2009,05,15,02,43,6.80
2009,05,15,02,44,6.80
2009,05,15,02,45,6.80
2009,05,15,02,46,6.80
2009,05,15,02,47,6.80
2009,05,15,02,48,6.80
2009,05,15,02,49,6.80
2009,05,15,02,50,6.80
2009,05,15,02,51,6.80
2009,05,15,02,52,6.80
2009,05,15,02,53,6.80
2009,05,15,02,54,6.80
2009,05,15,02,55,6.80
2009,05,15,02,56,6.80
2009,05,15,02,57,6.80
2009,05,15,02,58,6.80
2009,05,15,02,59,6.80
2009,05,15,03,00,6.80
2009,05,15,03,01,6.90
2009,05,15,03,02,6.90
2009,05,15,03,03,6.90
2009,05,15,03,04,6.90
2009,05,15,03,05,6.90
2009,05,15,03,06,6.90
2009,05,15,03,07,6.80
2009,05,15,03,08,6.80
2009,05,15,03,09,6.80
2009,05,15,03,10,6.80
2009,05,15,03,11,6.80
2009,05,15,03,12,6.80
2009,05,15,03,13,6.80
2009,05,15,03,14,6.80
2009,05,15,03,15,6.70
2009,05,15,03,16,6.70
2009,05,15,03,17,6.70
2009,05,15,03,18,6.70
2009,05,15,03,19,6.70
2009,05,15,03,20,6.70
2009,05,15,03,21,6.80
2009,05,15,03,22,6.80
2009,05,15,03,23,6.80
2009,05,15,03,24,6.80
2009,05,15,03,25,6.80
2009,05,15,03,26,6.80
2009,05,15,03,27,6.80
2009,05,15,03,28,6.80
2009,05,15,03,29,6.80
2009,05,15,03,30,6.70
2009,05,15,03,31,6.70
2009,05,15,03,32,6.70
2009,05,15,03,33,6.70
2009,05,15,03,34,6.70
2009,05,15,03,35,6.70
2009,05,15,03,36,6.70
2009,05,15,03,37,6.70
2009,05,15,03,38,6.70
2009,05,15,03,39,6.70
2009,05,15,03,40,6.70
2009,05,15,03,41,6.70
2009,05,15,03,42,6.70
2009,05,15,03,43,6.70
2009,05,15,03,44,6.70
2009,05,15,03,45,6.70
2009,05,15,03,46,6.70
2009,05,15,03,47,6.60
2009,05,15,03,48,6.60
2009,05,15,03,49,6.60
2009,05,15,03,50,6.60
2009,05,15,03,51,6.60
2009,05,15,03,52,6.60
2009,05,15,03,53,6.60
2009,05,15,03,54,6.50
2009,05,15,03,55,6.50
2009,05,15,03,56,6.50
2009,05,15,03,57,6.40
2009,05,15,03,58,6.40
2009,05,15,03,59,6.40
2009,05,15,04,00,6.40
2009,05,15,04,01,6.40
2009,05,15,04,02,6.40
2009,05,15,04,03,6.40
2009,05,15,04,04,6.40
2009,05,15,04,05,6.40
2009,05,15,04,06,6.40
2009,05,15,04,07,6.40
2009,05,15,04,08,6.40
2009,05,15,04,09,6.40
2009,05,15,04,10,6.40
2009,05,15,04,11,6.40
2009,05,15,04,12,6.40
2009,05,15,04,13,6.40
2009,05,15,04,14,6.40
2009,05,15,04,15,6.40
2009,05,15,04,16,6.40
2009,05,15,04,17,6.40
2009,05,15,04,18,6.50
2009,05,15,04,19,6.50
2009,05,15,04,20,6.50
2009,05,15,04,21,6.50
2009,05,15,04,22,6.50
2009,05,15,04,23,6.60
2009,05,15,04,24,6.60
2009,05,15,04,25,6.60
2009,05,15,04,26,6.60
2009,05,15,04,27,6.60
2009,05,15,04,28,6.60
2009,05,15,04,29,6.60
2009,05,15,04,30,6.70
2009,05,15,04,31,6.70
2009,05,15,04,32,6.70
2009,05,15,04,33,6.80
2009,05,15,04,34,6.80
2009,05,15,04,35,6.80
2009,05,15,04,36,6.90
2009,05,15,04,37,6.90
2009,05,15,04,38,7.00
2009,05,15,04,39,7.10
2009,05,15,04,40,7.10
2009,05,15,04,41,7.20
2009,05,15,04,42,7.20
2009,05,15,04,43,7.20
2009,05,15,04,44,7.20
2009,05,15,04,45,7.20
2009,05,15,04,46,7.20
2009,05,15,04,47,7.20
2009,05,15,04,48,7.20
2009,05,15,04,49,7.10
2009,05,15,04,50,7.10
2009,05,15,04,51,7.10
2009,05,15,04,52,7.10
2009,05,15,04,53,7.10
2009,05,15,04,54,7.10
2009,05,15,04,55,7.10
2009,05,15,04,56,7.10
2009,05,15,04,57,7.20
2009,05,15,04,58,7.20
2009,05,15,04,59,7.20
2009,05,15,05,00,7.30
2009,05,15,05,01,7.30
2009,05,15,05,02,7.40
2009,05,15,05,03,7.40
2009,05,15,05,04,7.50
2009,05,15,05,05,7.60
2009,05,15,05,06,7.60
2009,05,15,05,07,7.60
2009,05,15,05,08,7.70
2009,05,15,05,09,7.70
2009,05,15,05,10,7.70
2009,05,15,05,11,7.80
2009,05,15,05,12,7.80
2009,05,15,05,13,7.80
2009,05,15,05,14,7.80
2009,05,15,05,15,7.80
2009,05,15,05,16,7.80
2009,05,15,05,17,7.80
2009,05,15,05,18,7.80
2009,05,15,05,19,7.80
2009,05,15,05,20,7.80
2009,05,15,05,21,7.80
2009,05,15,05,22,7.80
2009,05,15,05,23,7.80
2009,05,15,05,24,7.90
2009,05,15,05,25,7.80
2009,05,15,05,26,7.80
2009,05,15,05,27,7.80
2009,05,15,05,28,7.80
2009,05,15,05,29,7.80
2009,05,15,05,30,7.80
2009,05,15,05,31,7.80
2009,05,15,05,32,7.80
2009,05,15,05,33,7.80
2009,05,15,05,34,7.80
2009,05,15,05,35,7.80
2009,05,15,05,36,7.80
2009,05,15,05,37,7.80
2009,05,15,05,38,7.80
2009,05,15,05,39,7.80
2009,05,15,05,40,7.80
2009,05,15,05,41,7.80
2009,05,15,05,42,7.80
2009,05,15,05,43,7.80
2009,05,15,05,44,7.80
2009,05,15,05,45,7.80
2009,05,15,05,46,7.80
2009,05,15,05,47,7.80
2009,05,15,05,48,7.80
2009,05,15,05,49,7.80
2009,05,15,05,50,7.80
2009,05,15,05,51,7.80
2009,05,15,05,52,7.80
2009,05,15,05,53,7.80
2009,05,15,05,54,7.80
2009,05,15,05,55,7.80
2009,05,15,05,56,7.80
2009,05,15,05,57,7.80
2009,05,15,05,58,7.80
2009,05,15,05,59,7.80
2009,05,15,06,00,7.80
2009,05,15,06,01,7.80
2009,05,15,06,02,7.80
2009,05,15,06,03,7.90
2009,05,15,06,04,7.90
2009,05,15,06,05,7.90
2009,05,15,06,06,7.90
2009,05,15,06,07,7.90
2009,05,15,06,08,7.90
2009,05,15,06,09,8.00
2009,05,15,06,10,8.00
2009,05,15,06,11,8.00
2009,05,15,06,12,8.00
2009,05,15,06,13,8.00
2009,05,15,06,14,8.10
2009,05,15,06,15,8.10
2009,05,15,06,16,8.10
2009,05,15,06,17,8.10
2009,05,15,06,18,8.10
2009,05,15,06,19,8.10
2009,05,15,06,20,8.10
2009,05,15,06,21,8.10
2009,05,15,06,22,8.10
2009,05,15,06,23,8.10
2009,05,15,06,24,8.10
2009,05,15,06,25,8.20
2009,05,15,06,26,8.20
2009,05,15,06,27,8.20
2009,05,15,06,28,8.20
2009,05,15,06,29,8.20
2009,05,15,06,30,8.20
2009,05,15,06,31,8.20
2009,05,15,06,32,8.20
2009,05,15,06,33,8.20
2009,05,15,06,34,8.20
2009,05,15,06,35,8.20
2009,05,15,06,36,8.20
2009,05,15,06,37,8.30
2009,05,15,06,38,8.30
2009,05,15,06,39,8.30
2009,05,15,06,40,8.30
2009,05,15,06,41,8.30
2009,05,15,06,42,8.30
2009,05,15,06,43,8.40
2009,05,15,06,44,8.40
2009,05,15,06,45,8.40
2009,05,15,06,46,8.40
2009,05,15,06,47,8.40
2009,05,15,06,48,8.40
2009,05,15,06,49,8.40
2009,05,15,06,50,8.40
2009,05,15,06,51,8.40
2009,05,15,06,52,8.40
2009,05,15,06,53,8.40
2009,05,15,06,54,8.40
2009,05,15,06,55,8.40
2009,05,15,06,56,8.40
2009,05,15,06,57,8.50
2009,05,15,06,58,8.50
2009,05,15,06,59,8.50
2009,05,15,07,00,8.50
2009,05,15,07,01,8.50
2009,05,15,07,02,8.50
2009,05,15,07,03,8.60
2009,05,15,07,04,8.60
2009,05,15,07,05,8.60
2009,05,15,07,06,8.60
2009,05,15,07,07,8.60
2009,05,15,07,08,8.60
2009,05,15,07,09,8.60
2009,05,15,07,10,8.60
2009,05,15,07,11,8.60
2009,05,15,07,12,8.70
2009,05,15,07,13,8.70
2009,05,15,07,14,8.70
2009,05,15,07,15,8.70
2009,05,15,07,16,8.80
2009,05,15,07,17,8.80
2009,05,15,07,18,8.80
2009,05,15,07,19,8.80
2009,05,15,07,20,8.80
2009,05,15,07,21,8.80
2009,05,15,07,22,8.90
2009,05,15,07,23,8.90
2009,05,15,07,24,8.90
2009,05,15,07,25,8.90
2009,05,15,07,26,9.00
2009,05,15,07,27,9.00
2009,05,15,07,28,9.00
2009,05,15,07,29,9.00
2009,05,15,07,30,9.10
2009,05,15,07,31,9.10
2009,05,15,07,32,9.10
2009,05,15,07,33,9.10
2009,05,15,07,34,9.20
2009,05,15,07,35,9.20
2009,05,15,07,36,9.20
2009,05,15,07,37,9.20
2009,05,15,07,38,9.20
2009,05,15,07,39,9.20
2009,05,15,07,40,9.20
2009,05,15,07,41,9.20
2009,05,15,07,42,9.30
2009,05,15,07,43,9.30
2009,05,15,07,44,9.30
2009,05,15,07,45,9.30
2009,05,15,07,46,9.40
2009,05,15,07,47,9.40
2009,05,15,07,48,9.40
2009,05,15,07,49,9.40
2009,05,15,07,50,9.50
2009,05,15,07,51,9.50
2009,05,15,07,52,9.50
2009,05,15,07,53,9.60
2009,05,15,07,54,9.60
2009,05,15,07,55,9.60
2009,05,15,07,56,9.70
2009,05,15,07,57,9.70
2009,05,15,07,58,9.70
2009,05,15,07,59,9.80
2009,05,15,08,00,9.80
2009,05,15,08,01,9.80
2009,05,15,08,02,9.80
2009,05,15,08,03,9.90
2009,05,15,08,04,9.90
2009,05,15,08,05,9.90
2009,05,15,08,06,9.90
2009,05,15,08,07,10.00
2009,05,15,08,08,10.00
2009,05,15,08,09,10.00
2009,05,15,08,10,10.10
2009,05,15,08,11,10.10
2009,05,15,08,12,10.10
2009,05,15,08,13,10.10
2009,05,15,08,14,10.10
2009,05,15,08,15,10.10
2009,05,15,08,16,10.20
2009,05,15,08,17,10.20
2009,05,15,08,18,10.20
2009,05,15,08,19,10.20
2009,05,15,08,20,10.30
2009,05,15,08,21,10.30
2009,05,15,08,22,10.30
2009,05,15,08,23,10.40
2009,05,15,08,24,10.40
2009,05,15,08,25,10.40
2009,05,15,08,26,10.50
2009,05,15,08,27,10.50
2009,05,15,08,28,10.60
2009,05,15,08,29,10.60
2009,05,15,08,30,10.60
2009,05,15,08,31,10.60
2009,05,15,08,32,10.60
2009,05,15,08,33,10.60
2009,05,15,08,34,10.60
2009,05,15,08,35,10.60
2009,05,15,08,36,10.60
2009,05,15,08,37,10.70
2009,05,15,08,38,10.70
2009,05,15,08,39,10.70
2009,05,15,08,40,10.70
2009,05,15,08,41,10.80
2009,05,15,08,42,10.90
2009,05,15,08,43,11.00
2009,05,15,08,44,11.10
2009,05,15,08,45,11.20
2009,05,15,08,46,11.30
2009,05,15,08,47,11.40
2009,05,15,08,48,11.50
2009,05,15,08,49,11.60
2009,05,15,08,50,11.70
2009,05,15,08,51,11.80
2009,05,15,08,52,11.90
2009,05,15,08,53,12.00
2009,05,15,08,54,12.10
2009,05,15,08,55,12.20
2009,05,15,08,56,12.30
2009,05,15,08,57,12.40
2009,05,15,08,58,12.50
2009,05,15,08,59,12.40
2009,05,15,09,00,12.30
2009,05,15,09,01,12.30
2009,05,15,09,02,12.30
2009,05,15,09,03,12.20
2009,05,15,09,04,12.00
2009,05,15,09,05,11.90
2009,05,15,09,06,11.80
2009,05,15,09,07,11.80
2009,05,15,09,08,11.90
2009,05,15,09,09,11.90
2009,05,15,09,10,12.00
2009,05,15,09,11,11.90
2009,05,15,09,12,11.80
2009,05,15,09,13,11.80
2009,05,15,09,14,11.70
2009,05,15,09,15,11.60
2009,05,15,09,16,11.60
2009,05,15,09,17,11.60
2009,05,15,09,18,11.80
2009,05,15,09,19,11.90
2009,05,15,09,20,12.00
2009,05,15,09,21,12.10
2009,05,15,09,22,12.00
2009,05,15,09,23,11.90
2009,05,15,09,24,11.90
2009,05,15,09,25,11.90
2009,05,15,09,26,11.90
2009,05,15,09,27,11.90
2009,05,15,09,28,11.90
2009,05,15,09,29,11.80
2009,05,15,09,30,11.80
2009,05,15,09,31,11.80
2009,05,15,09,32,11.80
2009,05,15,09,33,11.80
2009,05,15,09,34,11.80
2009,05,15,09,35,11.80
2009,05,15,09,36,11.90
2009,05,15,09,37,11.90
2009,05,15,09,38,11.90
2009,05,15,09,39,11.80
2009,05,15,09,40,11.80
2009,05,15,09,41,11.70
2009,05,15,09,42,11.60
2009,05,15,09,43,11.70
2009,05,15,09,44,11.70
2009,05,15,09,45,11.80
2009,05,15,09,46,11.90
2009,05,15,09,47,11.90
2009,05,15,09,48,12.00
2009,05,15,09,49,12.10
2009,05,15,09,50,12.10
2009,05,15,09,51,12.20
2009,05,15,09,52,12.30
2009,05,15,09,53,12.30
2009,05,15,09,54,12.30
2009,05,15,09,55,12.20
2009,05,15,09,56,12.20
2009,05,15,09,57,12.20
2009,05,15,09,58,12.10
2009,05,15,09,59,12.10
2009,05,15,10,00,12.00
2009,05,15,10,01,12.10
2009,05,15,10,02,12.00
2009,05,15,10,03,11.90
2009,05,15,10,04,11.90
2009,05,15,10,05,11.90
2009,05,15,10,06,11.90
2009,05,15,10,07,12.00
2009,05,15,10,08,12.00
2009,05,15,10,09,12.10
2009,05,15,10,10,12.20
2009,05,15,10,11,12.30
2009,05,15,10,12,12.40
2009,05,15,10,13,12.50
2009,05,15,10,14,12.50
2009,05,15,10,15,12.40
2009,05,15,10,16,12.50
2009,05,15,10,17,12.60
2009,05,15,10,18,12.70
2009,05,15,10,19,12.80
2009,05,15,10,20,12.90
2009,05,15,10,21,13.10
2009,05,15,10,22,13.10
2009,05,15,10,23,13.20
2009,05,15,10,24,13.20
2009,05,15,10,25,13.30
2009,05,15,10,26,13.30
2009,05,15,10,27,13.40
2009,05,15,10,28,13.50
2009,05,15,10,29,13.30
2009,05,15,10,30,13.10
2009,05,15,10,31,13.10
2009,05,15,10,32,13.20
2009,05,15,10,33,13.20
2009,05,15,10,34,13.20
2009,05,15,10,35,13.20
2009,05,15,10,36,13.20
2009,05,15,10,37,13.40
2009,05,15,10,38,13.50
2009,05,15,10,39,13.50
2009,05,15,10,40,13.50
2009,05,15,10,41,13.50
2009,05,15,10,42,13.40
2009,05,15,10,43,13.40
2009,05,15,10,44,13.40
2009,05,15,10,45,13.50
2009,05,15,10,46,13.70
2009,05,15,10,47,13.60
2009,05,15,10,48,13.40
2009,05,15,10,49,13.20
2009,05,15,10,50,13.20
2009,05,15,10,51,13.20
2009,05,15,10,52,13.20
2009,05,15,10,53,13.30
2009,05,15,10,54,13.30
2009,05,15,10,55,13.20
2009,05,15,10,56,13.10
2009,05,15,10,57,13.00
2009,05,15,10,58,13.00
2009,05,15,10,59,12.90
2009,05,15,11,00,13.00
2009,05,15,11,01,13.00
2009,05,15,11,02,12.90
2009,05,15,11,03,12.90
2009,05,15,11,04,12.90
2009,05,15,11,05,12.90
2009,05,15,11,06,12.90
2009,05,15,11,07,12.90
2009,05,15,11,08,12.90
2009,05,15,11,09,12.90
2009,05,15,11,10,13.00
2009,05,15,11,11,13.00
2009,05,15,11,12,13.10
2009,05,15,11,13,13.10
2009,05,15,11,14,13.10
2009,05,15,11,15,13.10
2009,05,15,11,16,13.10
2009,05,15,11,17,13.10
2009,05,15,11,18,13.20
2009,05,15,11,19,13.30
2009,05,15,11,20,13.30
2009,05,15,11,21,13.40
2009,05,15,11,22,13.40
2009,05,15,11,23,13.40
2009,05,15,11,24,13.50
2009,05,15,11,25,13.50
2009,05,15,11,26,13.50
2009,05,15,11,27,13.50
2009,05,15,11,28,13.40
2009,05,15,11,29,13.30
2009,05,15,11,30,13.40
2009,05,15,11,31,13.40
2009,05,15,11,32,13.40
2009,05,15,11,33,13.40
2009,05,15,11,34,13.20
2009,05,15,11,35,13.10
2009,05,15,11,36,13.00
2009,05,15,11,37,13.00
2009,05,15,11,38,13.00
2009,05,15,11,39,13.10
2009,05,15,11,40,13.20
2009,05,15,11,41,13.30
2009,05,15,11,42,13.30
2009,05,15,11,43,13.40
2009,05,15,11,44,13.50
2009,05,15,11,45,13.60
2009,05,15,11,46,13.60
2009,05,15,11,47,13.80
2009,05,15,11,48,13.90
2009,05,15,11,49,14.00
2009,05,15,11,50,14.00
2009,05,15,11,51,14.00
2009,05,15,11,52,14.10
2009,05,15,11,53,14.20
2009,05,15,11,54,14.00
2009,05,15,11,55,13.90
2009,05,15,11,56,13.90
2009,05,15,11,57,14.00
2009,05,15,11,58,14.00
2009,05,15,11,59,13.90
2009,05,15,12,00,13.90
2009,05,15,12,01,14.00
2009,05,15,12,02,14.00
2009,05,15,12,03,13.90
2009,05,15,12,04,14.00
2009,05,15,12,05,14.00
2009,05,15,12,06,13.80
2009,05,15,12,07,13.70
2009,05,15,12,08,13.70
2009,05,15,12,09,13.70
2009,05,15,12,10,13.70
2009,05,15,12,11,13.70
2009,05,15,12,12,13.80
2009,05,15,12,13,13.80
2009,05,15,12,14,13.90
2009,05,15,12,15,14.00
2009,05,15,12,16,14.00
2009,05,15,12,17,14.10
2009,05,15,12,18,14.20
2009,05,15,12,19,14.20
2009,05,15,12,20,14.10
2009,05,15,12,21,14.10
2009,05,15,12,22,14.20
2009,05,15,12,23,14.20
2009,05,15,12,24,14.20
2009,05,15,12,25,14.10
2009,05,15,12,26,14.10
2009,05,15,12,27,14.10
2009,05,15,12,28,14.00
2009,05,15,12,29,14.00
2009,05,15,12,30,14.10
2009,05,15,12,31,14.20
2009,05,15,12,32,14.20
2009,05,15,12,33,14.10
2009,05,15,12,34,14.00
2009,05,15,12,35,13.90
2009,05,15,12,36,13.90
2009,05,15,12,37,14.00
2009,05,15,12,38,14.10
2009,05,15,12,39,14.10
2009,05,15,12,40,14.10
2009,05,15,12,41,14.20
2009,05,15,12,42,14.20
2009,05,15,12,43,14.20
2009,05,15,12,44,14.20
2009,05,15,12,45,14.10
2009,05,15,12,46,14.00
2009,05,15,12,47,14.10
2009,05,15,12,48,14.20
2009,05,15,12,49,14.30
2009,05,15,12,50,14.40
2009,05,15,12,51,14.50
2009,05,15,12,52,14.50
2009,05,15,12,53,14.50
2009,05,15,12,54,14.40
2009,05,15,12,55,14.40
2009,05,15,12,56,14.40
2009,05,15,12,57,14.30
2009,05,15,12,58,14.20
2009,05,15,12,59,14.20
2009,05,15,13,00,14.30
2009,05,15,13,01,14.30
2009,05,15,13,02,14.30
2009,05,15,13,03,14.50
2009,05,15,13,04,14.50
2009,05,15,13,05,14.60
2009,05,15,13,06,14.70
2009,05,15,13,07,14.70
2009,05,15,13,08,14.60
2009,05,15,13,09,14.60
2009,05,15,13,10,14.70
2009,05,15,13,11,14.90
2009,05,15,13,12,15.00
2009,05,15,13,13,15.00
2009,05,15,13,14,15.00
2009,05,15,13,15,15.00
2009,05,15,13,16,15.00
2009,05,15,13,17,15.00
2009,05,15,13,18,15.00
2009,05,15,13,19,15.00
2009,05,15,13,20,15.10
2009,05,15,13,21,15.00
2009,05,15,13,22,15.00
2009,05,15,13,23,15.00
2009,05,15,13,24,15.00
2009,05,15,13,25,15.00
2009,05,15,13,26,15.00
2009,05,15,13,27,15.00
2009,05,15,13,28,14.90
2009,05,15,13,29,14.90
2009,05,15,13,30,14.90
2009,05,15,13,31,14.90
2009,05,15,13,32,14.90
2009,05,15,13,33,14.70
2009,05,15,13,34,14.70
2009,05,15,13,35,14.70
2009,05,15,13,36,14.80
2009,05,15,13,37,15.00
2009,05,15,13,38,15.00
2009,05,15,13,39,15.00
2009,05,15,13,40,15.00
2009,05,15,13,41,15.00
2009,05,15,13,42,15.00
2009,05,15,13,43,15.10
2009,05,15,13,44,15.10
2009,05,15,13,45,15.10
2009,05,15,13,46,15.10
2009,05,15,13,47,15.00
2009,05,15,13,48,15.10
2009,05,15,13,49,15.20
2009,05,15,13,50,15.10
2009,05,15,13,51,15.10
2009,05,15,13,52,15.00
2009,05,15,13,53,15.00
2009,05,15,13,54,15.00
2009,05,15,13,55,15.00
2009,05,15,13,56,15.00
2009,05,15,13,57,15.10
2009,05,15,13,58,15.30
2009,05,15,13,59,15.40
2009,05,15,14,00,15.30
2009,05,15,14,01,15.40
2009,05,15,14,02,15.50
2009,05,15,14,03,15.50
2009,05,15,14,04,15.40
2009,05,15,14,05,15.40
2009,05,15,14,06,15.40
2009,05,15,14,07,15.40
2009,05,15,14,08,15.60
2009,05,15,14,09,15.80
2009,05,15,14,10,15.80
2009,05,15,14,11,15.80
2009,05,15,14,12,15.60
2009,05,15,14,13,15.50
2009,05,15,14,14,15.30
2009,05,15,14,15,15.30
2009,05,15,14,16,15.10
2009,05,15,14,17,15.20
2009,05,15,14,18,15.40
2009,05,15,14,19,15.50
2009,05,15,14,20,15.60
2009,05,15,14,21,15.70
2009,05,15,14,22,15.80
2009,05,15,14,23,15.90
2009,05,15,14,24,16.00
2009,05,15,14,25,15.80
2009,05,15,14,26,15.70
2009,05,15,14,27,15.70
2009,05,15,14,28,15.60
2009,05,15,14,29,15.50
2009,05,15,14,30,15.40
2009,05,15,14,31,15.50
2009,05,15,14,32,15.70
2009,05,15,14,33,15.90
2009,05,15,14,34,16.00
2009,05,15,14,35,16.00
2009,05,15,14,36,15.90
2009,05,15,14,37,16.00
2009,05,15,14,38,15.90
2009,05,15,14,39,15.90
2009,05,15,14,40,15.90
2009,05,15,14,41,15.80
2009,05,15,14,42,15.70
2009,05,15,14,43,15.70
2009,05,15,14,44,15.90
2009,05,15,14,45,16.00
2009,05,15,14,46,16.10
2009,05,15,14,47,16.10
2009,05,15,14,48,16.10
2009,05,15,14,49,16.10
2009,05,15,14,50,16.20
2009,05,15,14,51,16.30
2009,05,15,14,52,16.30
2009,05,15,14,53,16.30
2009,05,15,14,54,16.10
2009,05,15,14,55,16.00
2009,05,15,14,56,16.00
2009,05,15,14,57,16.00
2009,05,15,14,58,16.10
2009,05,15,14,59,16.20
2009,05,15,15,00,16.20
2009,05,15,15,01,16.20
2009,05,15,15,02,16.20
2009,05,15,15,03,16.30
2009,05,15,15,04,16.40
2009,05,15,15,05,16.40
2009,05,15,15,06,16.40
2009,05,15,15,07,16.50
2009,05,15,15,08,16.60
2009,05,15,15,09,16.60
2009,05,15,15,10,16.60
2009,05,15,15,11,16.60
2009,05,15,15,12,16.60
2009,05,15,15,13,16.50
2009,05,15,15,14,16.60
2009,05,15,15,15,16.70
2009,05,15,15,16,16.70
2009,05,15,15,17,16.70
2009,05,15,15,18,16.70
2009,05,15,15,19,16.70
2009,05,15,15,20,16.80
2009,05,15,15,21,16.80
2009,05,15,15,22,16.70
2009,05,15,15,23,16.80
2009,05,15,15,24,16.90
2009,05,15,15,25,16.90
2009,05,15,15,26,16.90
2009,05,15,15,27,17.00
2009,05,15,15,28,17.10
2009,05,15,15,29,17.10
2009,05,15,15,30,17.20
2009,05,15,15,31,17.10
2009,05,15,15,32,17.10
2009,05,15,15,33,17.20
2009,05,15,15,34,17.30
2009,05,15,15,35,17.30
2009,05,15,15,36,17.30
2009,05,15,15,37,17.20
2009,05,15,15,38,17.10
2009,05,15,15,39,17.00
2009,05,15,15,40,16.80
2009,05,15,15,41,16.60
2009,05,15,15,42,16.50
2009,05,15,15,43,16.50
2009,05,15,15,44,16.40
2009,05,15,15,45,16.50
2009,05,15,15,46,16.50
2009,05,15,15,47,16.70
2009,05,15,15,48,16.80
2009,05,15,15,49,16.70
2009,05,15,15,50,16.70
2009,05,15,15,51,16.80
2009,05,15,15,52,16.80
2009,05,15,15,53,16.90
2009,05,15,15,54,16.90
2009,05,15,15,55,16.90
2009,05,15,15,56,16.80
2009,05,15,15,57,16.90
2009,05,15,15,58,16.90
2009,05,15,15,59,16.90
2009,05,15,16,00,16.90
2009,05,15,16,01,16.90
2009,05,15,16,02,16.90
2009,05,15,16,03,16.90
2009,05,15,16,04,16.80
2009,05,15,16,05,16.80
2009,05,15,16,06,16.90
2009,05,15,16,07,16.90
2009,05,15,16,08,16.90
2009,05,15,16,09,16.80
2009,05,15,16,10,16.90
2009,05,15,16,11,16.90
2009,05,15,16,12,16.90
2009,05,15,16,13,16.90
2009,05,15,16,14,16.80
2009,05,15,16,15,16.80
2009,05,15,16,16,16.80
2009,05,15,16,17,16.80
2009,05,15,16,18,16.80
2009,05,15,16,19,16.80
2009,05,15,16,20,16.70
2009,05,15,16,21,16.70
2009,05,15,16,22,16.70
2009,05,15,16,23,16.70
2009,05,15,16,24,16.80
2009,05,15,16,25,16.90
2009,05,15,16,26,16.90
2009,05,15,16,27,16.80
2009,05,15,16,28,16.80
2009,05,15,16,29,16.80
2009,05,15,16,30,16.80
2009,05,15,16,31,16.70
2009,05,15,16,32,16.70
2009,05,15,16,33,16.70
2009,05,15,16,34,16.70
2009,05,15,16,35,16.70
2009,05,15,16,36,16.70
2009,05,15,16,37,16.60
2009,05,15,16,38,16.60
2009,05,15,16,39,16.60
2009,05,15,16,40,16.60
2009,05,15,16,41,16.50
2009,05,15,16,42,16.40
2009,05,15,16,43,16.50
2009,05,15,16,44,16.70
2009,05,15,16,45,16.70
2009,05,15,16,46,16.80
2009,05,15,16,47,16.80
2009,05,15,16,48,16.70
2009,05,15,16,49,16.80
2009,05,15,16,50,16.80
2009,05,15,16,51,16.80
2009,05,15,16,52,16.80
2009,05,15,16,53,16.70
2009,05,15,16,54,16.60
2009,05,15,16,55,16.60
2009,05,15,16,56,16.60
2009,05,15,16,57,16.60
2009,05,15,16,58,16.50
2009,05,15,16,59,16.40
2009,05,15,17,00,16.30
2009,05,15,17,01,16.30
2009,05,15,17,02,16.30
2009,05,15,17,03,16.30
2009,05,15,17,04,16.30
2009,05,15,17,05,16.30
2009,05,15,17,06,16.40
2009,05,15,17,07,16.50
2009,05,15,17,08,16.60
2009,05,15,17,09,16.80
2009,05,15,17,10,16.80
2009,05,15,17,11,16.80
2009,05,15,17,12,16.80
2009,05,15,17,13,16.70
2009,05,15,17,14,16.70
2009,05,15,17,15,16.70
2009,05,15,17,16,16.70
2009,05,15,17,17,16.60
2009,05,15,17,18,16.60
2009,05,15,17,19,16.60
2009,05,15,17,20,16.70
2009,05,15,17,21,16.80
2009,05,15,17,22,16.80
2009,05,15,17,23,16.90
2009,05,15,17,24,17.00
2009,05,15,17,25,17.10
2009,05,15,17,26,17.10
2009,05,15,17,27,17.10
2009,05,15,17,28,17.10
2009,05,15,17,29,17.10
2009,05,15,17,30,17.10
2009,05,15,17,31,17.00
2009,05,15,17,32,17.00
2009,05,15,17,33,17.00
2009,05,15,17,34,17.00
2009,05,15,17,35,17.00
2009,05,15,17,36,17.00
2009,05,15,17,37,16.90
2009,05,15,17,38,16.90
2009,05,15,17,39,16.80
2009,05,15,17,40,16.80